QPF
0.00 0.00 0.00 0.00 0.00 0.00 0.00 0.00 0.00 0.00 0.00 0.00 0.00 0.00 0.00 0.00 0.00 0.00 0.00 0.00 0.00 0.00 0.00 0.00 0.00 0.00 0.00 0.00 0.00 0.00 0.00 0.00 0.00 0.00 0.00 0.00 0.00 0.00
0.00 0.00 0.00 0.00 0.00 0.00 0.00 0.00 0.00 0.00 0.00 0.00 0.00 0.00 0.00 0.00 0.00 0.00 0.00 0.00 0.00 0.00 0.00 0.00 0.00 0.00 0.00 0.00 0.00 0.00 0.00 0.00 0.00 0.00 0.00 0.00 0.00 0.00
0.00 0.00 0.00 0.00 0.00 0.00 0.00 0.00 0.00 0.00 0.00 0.00 0.00 0.00 0.00 0.00 0.00 0.00 0.00 0.00 0.00 0.00 0.00 0.00 0.00 0.00 0.00 0.00 0.00 0.00 0.00 0.00 0.00 0.00 0.00 0.00 0.00 0.00
0.00 0.00 0.00 0.00 0.00 0.00 0.00 0.00 0.00 0.00 0.00 0.00 0.00 0.00 0.00 0.00 0.00 0.00 0.00 0.00 0.00 0.00 0.00 0.00 0.00 0.00 0.00 0.00 0.00 0.00 0.00 0.00 0.00 0.00 0.00 0.00 0.00 0.00
0.00 0.00 0.00 0.00 0.00 0.00 0.00 0.00 0.00 0.00 0.00 0.00 0.00 0.00 0.00 0.00 0.00 0.00 0.00 0.00 0.00 0.00 0.00 0.00 0.00 0.00 0.00 0.00 0.00 0.00 0.00 0.00 0.00 0.00 0.00 0.00 0.00 0.00
0.00 0.00 0.00 0.00 0.00 0.00 0.00 0.00 0.00 0.00 0.00 0.00 0.00 0.00 0.00 0.00 0.00 0.00 0.00 0.00 0.00 0.00 0.00 0.00 0.00 0.00 0.00 0.00 0.00 0.00 0.00 0.00 0.00 0.00 0.00 0.00 0.00 0.00
0.00 0.00 0.00 0.00 0.00 0.00 0.00 0.00 0.00 0.00 0.00 0.00 0.00 0.00 0.00 0.00 0.00 0.00 0.00 0.00 0.00 0.00 0.00 0.00 0.00 0.00 0.00 0.00 0.00 0.00 0.00 0.00 0.00 0.00 0.00 0.00 0.00 0.00
0.00 0.00 0.00 0.00 0.00 0.00 0.00 0.00 0.00 0.00 0.00 0.00 0.00 0.00 0.00 0.00 0.00 0.00 0.00 0.00 0.00 0.00 0.00 0.00 0.00 0.00 0.00 0.00 0.00 0.00 0.00 0.00 0.00 0.00 0.00 0.00 0.00 0.00
0.00 0.00 0.00 0.00 0.00 0.00 0.00 0.00 0.00 0.00 0.00 0.00 0.00 0.00 0.00 0.00 0.00 0.00 0.00 0.00 0.00 0.00 0.00 0.00 0.00 0.00 0.00 0.00 0.00 0.00 0.00 0.00 0.00 0.00 0.00 0.00 0.00 0.00
0.01 0.01 0.01 0.00 0.00 0.00 0.00 0.01 0.00 0.00 0.00 0.00 0.00 0.00 0.00 0.00 0.00 0.00 0.00 0.00 0.00 0.00 0.00 0.00 0.00 0.00 0.00 0.00 0.00 0.00 0.00 0.00 0.00 0.00 0.00 0.00 0.00 0.00
0.01 0.01 0.01 0.01 0.01 0.01 0.02 0.02 0.01 0.01 0.00 0.00 0.01 0.01 0.01 0.01 0.01 0.00 0.00 0.00 0.00 0.00 0.00 0.00 0.00 0.00 0.00 0.00 0.00 0.00 0.00 0.00 0.00 0.00 0.00 0.00 0.00 0.00
0.01 0.01 0.01 0.01 0.01 0.02 0.04 0.04 0.03 0.01 0.01 0.01 0.01 0.02 0.02 0.01 0.01 0.01 0.00 0.01 0.00 0.00 0.00 0.00 0.00 0.00 0.00 0.00 0.00 0.00 0.00 0.00 0.00 0.00 0.00 0.00 0.00 0.00
0.01 0.01 0.01 0.01 0.02 0.03 0.05 0.06 0.03 0.02 0.04 0.06 0.06 0.06 0.04 0.03 0.02 0.01 0.01 0.01 0.01 0.01 0.00 0.00 0.00 0.00 0.00 0.00 0.00 0.00 0.01 0.00 0.00 0.00 0.00 0.00 0.00 0.00
0.01 0.01 0.01 0.00 0.01 0.03 0.06 0.06 0.04 0.07 0.13 0.13 0.11 0.10 0.07 0.04 0.02 0.01 0.01 0.01 0.01 0.01 0.00 0.00 0.00 0.00 0.00 0.00 0.00 0.01 0.01 0.01 0.00 0.00 0.00 0.00 0.00 0.00
0.02 0.01 0.02 0.02 0.02 0.04 0.06 0.07 0.11 0.16 0.17 0.12 0.08 0.05 0.04 0.03 0.04 0.05 0.04 0.02 0.01 0.01 0.00 0.00 0.00 0.00 0.00 0.00 0.00 0.01 0.01 0.01 0.00 0.00 0.00 0.00 0.00 0.00
0.03 0.03 0.04 0.04 0.05 0.06 0.07 0.10 0.17 0.16 0.12 0.08 0.05 0.05 0.06 0.09 0.11 0.11 0.09 0.06 0.04 0.03 0.01 0.01 0.00 0.00 0.00 0.00 0.00 0.00 0.01 0.01 0.00 0.00 0.00 0.00 0.00 0.00
0.06 0.08 0.07 0.07 0.08 0.10 0.10 0.11 0.15 0.16 0.13 0.11 0.12 0.13 0.13 0.12 0.12 0.10 0.08 0.07 0.06 0.05 0.04 0.02 0.01 0.00 0.00 0.00 0.00 0.00 0.00 0.01 0.00 0.00 0.00 0.00 0.00 0.00
0.13 0.12 0.06 0.05 0.05 0.06 0.08 0.09 0.12 0.13 0.12 0.12 0.14 0.14 0.13 0.12 0.12 0.12 0.11 0.09 0.08 0.07 0.06 0.04 0.02 0.01 0.01 0.00 0.00 0.00 0.00 0.00 0.00 0.00 0.00 0.00 0.00 0.00
0.15 0.10 0.05 0.04 0.05 0.06 0.08 0.09 0.09 0.10 0.11 0.12 0.14 0.14 0.14 0.14 0.13 0.13 0.13 0.13 0.12 0.10 0.07 0.04 0.02 0.01 0.01 0.00 0.00 0.00 0.00 0.00 0.00 0.00 0.00 0.00 0.00 0.00
0.10 0.06 0.04 0.04 0.06 0.08 0.09 0.09 0.10 0.11 0.12 0.13 0.15 0.15 0.14 0.14 0.13 0.12 0.12 0.11 0.10 0.09 0.07 0.05 0.02 0.01 0.00 0.00 0.00 0.00 0.00 0.00 0.00 0.00 0.00 0.00 0.00 0.00
0.05 0.05 0.04 0.06 0.08 0.09 0.10 0.10 0.10 0.10 0.10 0.13 0.15 0.15 0.14 0.13 0.13 0.11 0.10 0.10 0.09 0.07 0.06 0.04 0.02 0.01 0.00 0.00 0.00 0.00 0.00 0.00 0.00 0.00 0.00 0.00 0.00 0.00
0.06 0.07 0.07 0.08 0.09 0.11 0.11 0.11 0.13 0.14 0.14 0.14 0.14 0.13 0.13 0.12 0.11 0.10 0.09 0.09 0.08 0.06 0.06 0.04 0.03 0.02 0.01 0.00 0.00 0.00 0.00 0.00 0.00 0.00 0.00 0.00 0.00 0.00
0.08 0.08 0.08 0.08 0.09 0.11 0.11 0.12 0.13 0.13 0.13 0.12 0.11 0.12 0.12 0.12 0.11 0.10 0.09 0.08 0.07 0.06 0.05 0.04 0.03 0.01 0.01 0.00 0.00 0.00 0.00 0.00 0.00 0.00 0.00 0.00 0.00 0.00
MSLP
1016.21 1016.19 1016.21 1016.29 1016.42 1016.63 1016.89 1017.22 1017.60 1018.04 1018.51 1019.02 1019.55 1020.08 1020.60 1021.10 1021.56 1021.99 1022.38 1022.73 1023.03 1023.28 1023.49 1023.65 1023.77 1023.85 1023.92 1023.97 1024.03 1024.10 1024.20 1024.33 1024.47 1024.61 1024.74 1024.82 1024.84 1024.76
1015.95 1015.86 1015.79 1015.76 1015.77 1015.85 1016.00 1016.23 1016.55 1016.95 1017.43 1017.97 1018.55 1019.16 1019.76 1020.34 1020.89 1021.39 1021.83 1022.22 1022.54 1022.81 1023.03 1023.20 1023.33 1023.42 1023.50 1023.57 1023.65 1023.76 1023.90 1024.08 1024.28 1024.50 1024.70 1024.85 1024.92 1024.89
1015.76 1015.61 1015.47 1015.34 1015.25 1015.22 1015.26 1015.40 1015.64 1015.99 1016.44 1016.98 1017.58 1018.23 1018.88 1019.52 1020.12 1020.67 1021.17 1021.59 1021.96 1022.25 1022.49 1022.68 1022.83 1022.93 1023.02 1023.11 1023.21 1023.34 1023.52 1023.74 1024.00 1024.27 1024.53 1024.75 1024.89 1024.92
1015.53 1015.35 1015.16 1014.97 1014.80 1014.68 1014.64 1014.69 1014.85 1015.14 1015.55 1016.05 1016.64 1017.29 1017.95 1018.61 1019.24 1019.82 1020.35 1020.82 1021.23 1021.57 1021.85 1022.08 1022.26 1022.40 1022.52 1022.63 1022.75 1022.90 1023.10 1023.35 1023.64 1023.95 1024.26 1024.53 1024.73 1024.82
1015.18 1014.98 1014.76 1014.54 1014.33 1014.16 1014.06 1014.05 1014.15 1014.37 1014.71 1015.16 1015.70 1016.30 1016.93 1017.58 1018.21 1018.80 1019.36 1019.87 1020.33 1020.73 1021.09 1021.38 1021.62 1021.82 1021.98 1022.13 1022.28 1022.45 1022.66 1022.93 1023.23 1023.57 1023.90 1024.21 1024.45 1024.59
1014.63 1014.42 1014.20 1013.98 1013.76 1013.57 1013.44 1013.39 1013.44 1013.60 1013.87 1014.24 1014.70 1015.23 1015.81 1016.41 1017.01 1017.60 1018.18 1018.73 1019.25 1019.73 1020.16 1020.55 1020.88 1021.16 1021.39 1021.59 1021.78 1021.98 1022.21 1022.48 1022.78 1023.12 1023.46 1023.78 1024.05 1024.22
1013.85 1013.63 1013.42 1013.21 1013.00 1012.82 1012.69 1012.62 1012.63 1012.74 1012.94 1013.24 1013.61 1014.06 1014.55 1015.09 1015.64 1016.22 1016.81 1017.40 1017.98 1018.55 1019.09 1019.58 1020.02 1020.40 1020.72 1020.99 1021.24 1021.47 1021.72 1021.99 1022.29 1022.61 1022.95 1023.27 1023.53 1023.72
1012.82 1012.59 1012.39 1012.19 1012.01 1011.86 1011.74 1011.67 1011.66 1011.73 1011.88 1012.10 1012.40 1012.76 1013.17 1013.64 1014.15 1014.71 1015.30 1015.93 1016.58 1017.23 1017.87 1018.48 1019.03 1019.52 1019.94 1020.29 1020.60 1020.88 1021.15 1021.43 1021.73 1022.05 1022.37 1022.67 1022.93 1023.11
1011.60 1011.35 1011.14 1010.95 1010.79 1010.65 1010.55 1010.49 1010.49 1010.53 1010.64 1010.81 1011.05 1011.34 1011.70 1012.11 1012.59 1013.13 1013.73 1014.39 1015.09 1015.82 1016.55 1017.26 1017.91 1018.51 1019.02 1019.47 1019.84 1020.18 1020.49 1020.79 1021.09 1021.41 1021.72 1022.01 1022.25 1022.43
1010.26 1009.97 1009.73 1009.53 1009.37 1009.24 1009.15 1009.10 1009.10 1009.14 1009.24 1009.39 1009.59 1009.85 1010.18 1010.57 1011.03 1011.56 1012.18 1012.86 1013.61 1014.39 1015.19 1015.97 1016.71 1017.38 1017.98 1018.50 1018.95 1019.35 1019.71 1020.05 1020.38 1020.71 1021.02 1021.31 1021.55 1021.73
1008.91 1008.55 1008.25 1008.01 1007.83 1007.69 1007.59 1007.55 1007.55 1007.61 1007.71 1007.87 1008.09 1008.36 1008.69 1009.08 1009.55 1010.10 1010.73 1011.44 1012.21 1013.02 1013.86 1014.68 1015.47 1016.20 1016.86 1017.44 1017.96 1018.41 1018.83 1019.23 1019.60 1019.97 1020.31 1020.62 1020.87 1021.05
1007.61 1007.17 1006.79 1006.49 1006.25 1006.07 1005.96 1005.91 1005.93 1006.00 1006.14 1006.34 1006.60 1006.91 1007.29 1007.73 1008.23 1008.81 1009.46 1010.18 1010.97 1011.79 1012.62 1013.46 1014.26 1015.01 1015.70 1016.33 1016.90 1017.42 1017.90 1018.36 1018.80 1019.22 1019.61 1019.95 1020.23 1020.43
1006.40 1005.87 1005.41 1005.02 1004.71 1004.49 1004.34 1004.28 1004.30 1004.41 1004.60 1004.86 1005.19 1005.58 1006.03 1006.54 1007.10 1007.73 1008.41 1009.14 1009.92 1010.73 1011.54 1012.36 1013.14 1013.89 1014.59 1015.24 1015.85 1016.42 1016.97 1017.50 1018.01 1018.49 1018.94 1019.34 1019.66 1019.89
1005.28 1004.66 1004.11 1003.64 1003.26 1002.97 1002.79 1002.72 1002.76 1002.90 1003.15 1003.49 1003.91 1004.40 1004.95 1005.54 1006.18 1006.86 1007.57 1008.31 1009.08 1009.86 1010.64 1011.41 1012.17 1012.89 1013.58 1014.24 1014.87 1015.48 1016.08 1016.67 1017.25 1017.81 1018.32 1018.77 1019.14 1019.41
1004.19 1003.50 1002.88 1002.34 1001.89 1001.56 1001.35 1001.27 1001.33 1001.52 1001.84 1002.26 1002.78 1003.38 1004.03 1004.72 1005.44 1006.17 1006.92 1007.67 1008.43 1009.18 1009.92 1010.65 1011.36 1012.05 1012.71 1013.37 1014.01 1014.65 1015.29 1015.93 1016.56 1017.17 1017.73 1018.23 1018.64 1018.94
1003.07 1002.33 1001.66 1001.08 1000.59 1000.23 1000.00 999.93 1000.02 1000.27 1000.66 1001.17 1001.79 1002.49 1003.25 1004.03 1004.82 1005.62 1006.41 1007.17 1007.92 1008.65 1009.36 1010.05 1010.71 1011.37 1012.01 1012.65 1013.29 1013.94 1014.60 1015.27 1015.93 1016.57 1017.17 1017.70 1018.13 1018.45
1001.85 1001.10 1000.42 999.81 999.31 998.95 998.74 998.70 998.84 999.14 999.61 1000.21 1000.92 1001.72 1002.56 1003.42 1004.29 1005.14 1005.96 1006.75 1007.50 1008.22 1008.91 1009.57 1010.21 1010.84 1011.47 1012.09 1012.73 1013.38 1014.04 1014.71 1015.37 1016.01 1016.61 1017.14 1017.57 1017.89
1000.54 999.79 999.12 998.53 998.05 997.72 997.56 997.56 997.76 998.13 998.67 999.35 1000.14 1001.01 1001.93 1002.86 1003.79 1004.68 1005.54 1006.35 1007.12 1007.84 1008.53 1009.19 1009.82 1010.45 1011.06 1011.68 1012.31 1012.94 1013.59 1014.24 1014.88 1015.49 1016.06 1016.56 1016.96 1017.25
999.17 998.45 997.81 997.26 996.83 996.56 996.45 996.52 996.78 997.22 997.82 998.57 999.43 1000.37 1001.34 1002.32 1003.29 1004.22 1005.11 1005.95 1006.73 1007.48 1008.18 1008.85 1009.50 1010.13 1010.76 1011.38 1012.00 1012.62 1013.24 1013.85 1014.45 1015.01 1015.52 1015.97 1016.32 1016.57
997.88 997.19 996.59 996.09 995.72 995.51 995.47 995.61 995.93 996.44 997.11 997.91 998.82 999.79 1000.80 1001.81 1002.81 1003.76 1004.67 1005.53 1006.34 1007.11 1007.85 1008.55 1009.23 1009.89 1010.53 1011.16 1011.78 1012.39 1012.98 1013.55 1014.09 1014.58 1015.03 1015.40 1015.69 1015.87
996.83 996.17 995.61 995.16 994.84 994.69 994.71 994.91 995.30 995.85 996.57 997.40 998.34 999.33 1000.36 1001.38 1002.38 1003.35 1004.27 1005.14 1005.98 1006.77 1007.53 1008.27 1008.99 1009.68 1010.36 1011.01 1011.64 1012.23 1012.80 1013.33 1013.81 1014.24 1014.61 1014.90 1015.11 1015.22
996.19 995.55 995.01 994.60 994.32 994.21 994.28 994.53 994.95 995.54 996.27 997.13 998.07 999.06 1000.07 1001.09 1002.08 1003.03 1003.95 1004.83 1005.67 1006.49 1007.28 1008.05 1008.80 1009.53 1010.23 1010.91 1011.55 1012.14 1012.69 1013.18 1013.61 1013.98 1014.28 1014.49 1014.62 1014.65
996.10 995.47 994.94 994.54 994.29 994.20 994.28 994.54 994.98 995.57 996.31 997.15 998.07 999.04 1000.02 1001.01 1001.96 1002.89 1003.79 1004.65 1005.49 1006.30 1007.10 1007.89 1008.67 1009.43 1010.16 1010.85 1011.51 1012.10 1012.64 1013.10 1013.49 1013.81 1014.03 1014.17 1014.21 1014.16
Thickness
5530 5531 5534 5538 5541 5543 5543 5542 5538 5526 5528 5530 5530 5531 5529 5527 5525 5524 5524 5522 5521 5519 5518 5518 5518 5518 5518 5519 5519 5520 5521 5521 5521 5522 5522 5523 5523 5524
5514 5515 5518 5520 5523 5527 5529 5530 5531 5532 5528 5527 5524 5524 5521 5518 5516 5514 5514 5512 5511 5510 5509 5508 5508 5507 5507 5508 5508 5508 5509 5509 5509 5509 5509 5510 5511 5511
5496 5499 5503 5503 5506 5509 5512 5514 5515 5516 5517 5512 5513 5512 5508 5507 5505 5503 5502 5502 5501 5500 5499 5498 5497 5497 5497 5496 5497 5497 5497 5497 5496 5496 5496 5497 5497 5498
5477 5481 5486 5486 5490 5492 5494 5498 5499 5500 5501 5496 5497 5497 5496 5497 5494 5491 5491 5491 5490 5489 5488 5487 5487 5486 5486 5486 5485 5485 5485 5485 5484 5483 5483 5483 5484 5484
5457 5463 5468 5468 5474 5476 5478 5482 5484 5482 5482 5482 5485 5485 5485 5483 5479 5477 5476 5477 5477 5477 5477 5477 5476 5476 5476 5475 5475 5474 5474 5473 5472 5471 5470 5470 5470 5470
5438 5444 5449 5453 5458 5459 5462 5466 5466 5464 5464 5466 5468 5471 5472 5471 5467 5465 5464 5464 5464 5464 5466 5466 5466 5465 5465 5465 5464 5464 5463 5461 5460 5459 5458 5457 5457 5457
5420 5425 5431 5435 5441 5443 5447 5450 5449 5450 5450 5452 5454 5456 5460 5460 5462 5461 5459 5453 5451 5454 5454 5455 5454 5454 5454 5454 5454 5453 5452 5450 5449 5447 5446 5445 5445 5445
5400 5406 5412 5417 5423 5427 5432 5436 5437 5438 5441 5444 5448 5452 5459 5461 5458 5453 5448 5439 5441 5448 5443 5444 5443 5444 5444 5444 5444 5442 5441 5439 5438 5436 5434 5433 5433 5433
5378 5385 5392 5400 5404 5408 5413 5418 5424 5430 5434 5436 5440 5450 5451 5452 5447 5442 5442 5444 5450 5448 5438 5437 5435 5435 5434 5433 5432 5431 5429 5427 5426 5424 5423 5422 5421 5421
5355 5363 5371 5381 5386 5389 5392 5398 5408 5417 5424 5425 5432 5440 5436 5436 5436 5439 5438 5431 5428 5433 5435 5430 5427 5423 5420 5419 5418 5418 5416 5415 5413 5411 5410 5409 5408 5408
5330 5340 5348 5359 5370 5369 5371 5381 5390 5401 5407 5410 5416 5417 5418 5421 5421 5416 5415 5412 5411 5418 5422 5420 5416 5408 5404 5403 5403 5403 5401 5400 5399 5398 5396 5395 5394 5394
5304 5315 5326 5337 5347 5347 5351 5361 5373 5387 5387 5391 5396 5400 5403 5405 5408 5412 5413 5408 5407 5406 5411 5406 5402 5395 5386 5387 5386 5386 5385 5385 5384 5383 5382 5381 5380 5379
5273 5288 5303 5314 5323 5329 5333 5342 5359 5364 5364 5369 5374 5380 5384 5389 5394 5399 5403 5404 5402 5401 5405 5396 5391 5385 5379 5372 5369 5369 5369 5368 5368 5367 5366 5364 5363 5362
5250 5266 5279 5289 5297 5306 5313 5326 5337 5338 5342 5348 5355 5364 5371 5377 5380 5382 5383 5383 5386 5388 5390 5387 5383 5380 5370 5361 5356 5353 5352 5351 5350 5349 5347 5346 5345 5343
5229 5246 5257 5265 5272 5282 5294 5306 5311 5316 5323 5331 5341 5350 5356 5357 5356 5356 5356 5357 5359 5363 5364 5365 5369 5368 5364 5357 5349 5342 5336 5333 5332 5331 5329 5328 5326 5323
5201 5219 5233 5244 5252 5263 5274 5285 5292 5300 5307 5315 5323 5327 5329 5331 5333 5334 5335 5335 5334 5333 5336 5338 5342 5346 5345 5341 5337 5328 5322 5316 5312 5311 5310 5308 5306 5303
5171 5185 5202 5218 5230 5244 5257 5268 5277 5282 5288 5294 5298 5303 5307 5309 5312 5313 5314 5314 5314 5313 5311 5312 5314 5318 5320 5321 5315 5311 5303 5297 5292 5289 5289 5289 5287 5284
5153 5169 5185 5199 5213 5226 5238 5249 5259 5266 5271 5274 5278 5283 5287 5291 5291 5291 5291 5291 5291 5290 5288 5290 5291 5291 5290 5291 5295 5289 5282 5276 5272 5269 5269 5269 5269 5265
5147 5161 5173 5185 5196 5207 5218 5229 5238 5246 5250 5253 5258 5264 5268 5269 5270 5269 5269 5268 5269 5269 5268 5270 5274 5278 5276 5274 5271 5268 5262 5256 5252 5249 5248 5248 5249 5248
5143 5153 5163 5172 5181 5190 5199 5208 5216 5222 5228 5234 5239 5243 5247 5249 5250 5250 5250 5250 5251 5250 5249 5251 5256 5262 5266 5262 5251 5246 5242 5237 5232 5229 5226 5226 5228 5228
5141 5148 5157 5164 5172 5178 5185 5191 5197 5203 5209 5213 5218 5223 5227 5229 5230 5231 5231 5231 5231 5231 5231 5232 5234 5235 5236 5233 5226 5220 5216 5214 5212 5208 5205 5203 5206 5209
5140 5147 5155 5161 5166 5170 5174 5177 5181 5185 5189 5194 5200 5204 5208 5210 5212 5212 5212 5212 5211 5211 5210 5209 5209 5211 5211 5209 5204 5198 5193 5190 5188 5186 5184 5182 5182 5189
5139 5146 5152 5157 5159 5162 5163 5165 5167 5170 5173 5177 5182 5186 5189 5192 5193 5193 5192 5191 5190 5190 5190 5189 5189 5188 5188 5185 5181 5177 5173 5169 5166 5165 5163 5161 5162 5167